{"data":{"norad_id":67042,"intl_designator":"2025-294N","name":"STARLINK-35773","alt_names":[],"object_type":"PAYLOAD","status":"ACTIVE","operator":null,"country":"US","launch_date":"2025-12-11","launch_site_code":"AFETR","launch_vehicle":null,"mission":null,"orbit_class":"UNKNOWN","rcs_meters":null,"size_class":null,"mass_kg":null,"dimensions":null,"purposes":["comms"],"wikipedia_slug":null,"has_3d_model":false,"image_url":null,"decayed_at":null,"tle_current":{"epoch":"2026-05-24T21:29:28.442976Z","epoch_age_seconds":77440,"freshness":"FRESH","line1":"1 67042U 25294N   26144.89546809  .00007468  00000+0  28064-3 0  9994","line2":"2 67042  43.0026 327.7317 0001766 276.6844  83.3807 15.27578839 26454","mean_motion":15.27578839,"eccentricity":0.0001766,"inclination_deg":43.0026,"raan_deg":327.7317,"arg_perigee_deg":276.6844,"mean_anomaly_deg":83.3807,"bstar":0.00028064,"rev_number":2645,"period_min":94.266820358854,"perigee_km":481.84088641502,"apogee_km":484.26425857203,"semimajor_km":6861.1895724935,"source":"CELESTRAK","updated_at":"2026-05-25T13:38:21.438758Z"}}}